CST,Max TemperatureF,Mean TemperatureF,Min TemperatureF,Max Dew PointF,MeanDew PointF,Min DewpointF,Max Humidity, Mean Humidity, Min Humidity, Max Sea Level PressureIn, Mean Sea Level PressureIn, Min Sea Level PressureIn, Max VisibilityMiles, Mean VisibilityMiles, Min VisibilityMiles, Max Wind SpeedMPH, Mean Wind SpeedMPH, Max Gust SpeedMPH,PrecipitationIn, CloudCover, Events, WindDirDegrees
2013-1-1,21,11,1,8,4,-3,88,68,47,30.39,30.30,30.19,10,10,9,12,7,14,0.00,2,,147
2013-1-2,34,22,10,28,19,7,84,77,69,30.26,30.15,30.06,10,9,6,14,7,16,T,6,Snow,256
2013-1-3,32,24,15,25,16,11,88,78,68,30.46,30.38,30.23,10,10,7,21,9,24,0.00,5,,327
2013-1-4,36,24,12,21,14,9,92,72,51,30.35,30.27,30.19,10,10,7,13,8,15,0.00,0,,173
2013-1-5,32,23,14,25,18,13,88,73,58,30.25,30.12,30.02,10,9,7,30,11,36,0.00,4,,259
2013-1-6,35,24,12,22,17,9,88,73,58,30.38,30.29,30.18,10,10,9,25,7,31,0.00,1,,199
2013-1-7,40,30,20,27,23,18,92,76,59,30.16,30.05,29.99,10,9,4,22,8,23,0.00,4,,180
2013-1-8,42,32,21,29,24,12,93,75,51,30.16,29.98,29.88,10,9,4,18,6,26,0.00,3,Fog,182
2013-1-9,45,34,24,32,27,22,89,75,57,30.46,30.36,30.18,10,9,7,8,5,,0.00,3,,149
2013-1-10,39,36,33,37,32,23,100,81,51,30.35,29.94,29.70,10,6,0,16,9,,0.04,7,Fog-Rain,154
2013-1-11,53,41,29,45,38,22,93,80,66,29.75,29.56,29.39,10,5,0,25,12,32,T,7,Fog,176
2013-1-12,29,21,12,15,7,3,69,61,52,30.19,30.08,29.82,10,10,9,25,15,35,0.00,6,,303
2013-1-13,22,15,8,6,3,1,73,57,41,30.40,30.28,30.14,10,10,7,22,11,28,T,3,Snow,314
2013-1-14,29,19,8,12,8,3,80,61,42,30.53,30.44,30.37,10,10,10,12,4,15,0.00,1,,171
2013-1-15,36,25,14,16,13,9,80,59,38,30.40,30.27,30.09,10,10,10,17,8,21,0.00,1,,172
2013-1-16,52,37,21,32,25,15,89,67,44,30.27,30.04,29.91,10,10,10,23,10,26,T,3,,272
2013-1-17,41,32,22,29,24,17,92,76,59,30.51,30.40,30.25,10,9,4,14,3,16,0.00,1,,290
2013-1-18,52,40,27,31,28,24,85,63,41,30.30,30.05,29.91,10,10,7,22,10,28,0.00,1,,174
2013-1-19,54,38,21,31,25,11,85,62,38,30.39,30.06,29.88,10,10,10,31,14,38,0.00,1,,332
2013-1-20,21,17,12,11,8,5,84,68,51,30.48,30.44,30.37,10,10,9,18,9,23,T,5,Snow,353
2013-1-21,16,10,4,7,-4,-7,73,57,40,30.54,30.47,30.38,10,10,9,25,11,30,T,8,Snow,341
2013-1-22,18,14,10,8,5,-2,76,67,58,30.46,30.39,30.32,10,8,1,9,4,16,0.06,7,Snow,121
2013-1-23,29,19,8,17,9,-1,83,69,55,30.59,30.36,30.23,10,10,10,22,12,26,0.00,5,,12
2013-1-24,20,12,3,6,-1,-8,69,59,49,30.64,30.43,30.20,10,10,10,20,10,22,0.00,6,,121
2013-1-25,48,31,13,25,17,6,81,60,39,30.29,30.22,30.16,10,10,10,17,6,22,0.00,1,,331
2013-1-26,47,31,15,24,17,7,75,58,40,30.32,30.19,30.05,10,10,10,21,12,26,0.00,3,,139
2013-1-27,41,38,35,40,35,22,100,74,48,30.01,29.83,29.70,10,4,0,20,10,24,0.18,8,Fog-Rain,151
2013-1-28,46,40,33,45,38,33,100,96,92,29.91,29.76,29.57,2,1,0,12,5,14,0.00,8,Fog,97
2013-1-29,41,36,31,39,31,28,92,87,82,29.71,29.65,29.59,10,5,0,23,13,30,0.01,8,Fog-Snow,342
2013-1-30,31,22,12,27,16,4,92,76,60,29.99,29.81,29.66,10,5,0,35,20,41,0.21,6,Fog-Snow,333
2013-1-31,13,6,-1,3,-4,-9,76,66,55,30.51,30.29,30.01,10,9,6,30,17,37,T,4,,318